Location: Dürabuch
(48.2640°N, 11.2185°E)
Time: 01:58:43
(UTC+00:00)

Cosmos 2082 Rocket - Pass Details

Date: 23 May 2024
Orbit: 832 x 853 km, 71.0° (Epoch: 13 June)

Event Time Altitude Azimuth Distance (km) Brightness Sun altitude
Exits shadow 01:48:52 - 259° (W) 2,651 4.3 -12.7°
Reaches altitude 10° 01:49:26 10° 263° (W) 2,485 4.2 -12.6°
Maximum altitude 01:54:01 24° 316° (NW) 1,696 3.9 -12.1°
Drops below altitude 10° 01:58:36 10° 10° (N) 2,492 5.7 -11.7°
Sets 02:01:34 0° 24° (NNE) 3,429 7.0 -11.3°
